{"data":{"norad_id":53722,"epoch":"2026-05-25T01:21:49.761216Z","epoch_age_seconds":74076,"freshness":"FRESH","line1":"1 53722U 22107Y   26145.05682594  .00003072  00000+0  21115-3 0  9992","line2":"2 53722  53.2141 271.2040 0001535  89.5099 270.6069 15.08820212205935","mean_motion":15.08820212,"eccentricity":0.0001535,"inclination_deg":53.2141,"raan_deg":271.204,"arg_perigee_deg":89.5099,"mean_anomaly_deg":270.6069,"bstar":0.00021115,"rev_number":20593,"period_min":95.438806330094,"perigee_km":538.74196970072,"apogee_km":540.86577754893,"semimajor_km":6917.9408736248,"source":"CELESTRAK","updated_at":"2026-05-25T13:38:17.535530Z"}}